Location: Castelbiague
(43.0361°N, 0.9246°E)
Time: 10:45:27
(UTC+00:00)

Okean 1-7 Rocket - Pass Details

Date: 17 June 2021
Orbit: 616 x 649 km, 82.5° (Epoch: 28 July)

Event Time Altitude Azimuth Distance (km) Brightness Sun altitude
Exits shadow 23:27:37 78° 167° (SSE) 653 3.4 -23.2°
Maximum altitude 23:27:54 86° 96° (E) 641 3.5 -23.2°
Drops below altitude 10° 23:32:23 10° 9° (N) 2,016 7.2 -23.3°
Sets 23:34:36 0° 9° (N) 2,922 8.3 -23.4°
